Tracking 26321 objects as of 27-Nov-2022
HD Live streaming from Space Station
objects crossing your sky now

STARLINK-4518

Track STARLINK-4518 now!
10-day predictions
STARLINK-4518 is classified as:


NORAD ID: 53550
Int'l Code: 2022-101Z
Perigee: 545.6 km
Apogee: 548.1 km
Inclination: 53.2 °
Period: 95.4 minutes
Semi major axis: 6917 km
RCS: Unknown
Launch date: August 19, 2022
Source: United States (US)
Launch site: AIR FORCE EASTERN TEST RANGE (AFETR)
aabbcc
Your satellite tracking list
Your tracking list is empty




NASA's NSSDC Master Catalog

Two Line Element Set (TLE):
1 53550U 22101Z   22331.05963189  .00004171  00000-0  27992-3 0  9991
2 53550  53.2192  44.9721 0001748  49.3183 310.7960 15.08850400 15358
Source of the keplerian elements: AFSPC